Spokane, WA

10:29 AM PDT on August 20, 2017 (GMT -0700)
Spokane International

Weather History for KGEG - September, 2013

Change the Weather History Date:

Thursday, September 19, 2013

  Actual Average Record
Temperature  
Mean Temperature 59 °F 59 °F  
Max Temperature 71 °F 72 °F 92 °F (1922)
Min Temperature 46 °F 46 °F 32 °F (1983)
Degree Days  
Heating Degree Days 6 7  
Month to date heating degree days 28 86  
Since 1 July heating degree days 35 151  
Cooling Degree Days 0 1  
Month to date cooling degree days 108 32  
Year to date cooling degree days 709 443  
Growing Degree Days 8 (Base 50)    
Moisture  
Dew Point 40 °F    
Average Humidity 53    
Maximum Humidity 82    
Minimum Humidity 24    
Precipitation  
Precipitation 0.00 in 0.03 in 1.04 in (1973)
Month to date precipitation 0.50 0.41  
Year to date precipitation 7.97 10.52  
Snow  
Snow 0.00 in 0.00 in 0.00 in (2002)
Month to date snowfall 0.0 0.0  
Since 1 July snowfall 0.0 0.0  
Since 1 September snowfall 0.0 0.0  
Snow Depth 0.00 in    
Sea Level Pressure  
Sea Level Pressure 30.06 in    
Wind  
Wind Speed 7 mph (East)    
Max Wind Speed 15 mph    
Max Gust Speed 21 mph    
Visibility 10 miles    
Events      
T = Trace of Precipitation, MM = Missing Value Source: NWS Daily Summary

Daily Weather History Graph

Daily Weather History Graph

Search for Another Location

Airport or City:

Trip Planner

Search our weather history database for the weather conditions in past years. The results will help you decide how hot, cold, wet, or windy it might be!

Date:

Astronomy

Sep. 19, 2013 Rise Set
Actual Time 6:33 AM PDT 6:53 PM PDT
Civil Twilight 6:02 AM PDT 7:24 PM PDT
Nautical Twilight 5:25 AM PDT 8:00 PM PDT
Astronomical Twilight 4:48 AM PDT 8:38 PM PDT
Moon 6:48 PM PDT (9/19) 6:51 AM PDT (9/19)
Length of Visible Light 13h 21m
Length of Day
12h 20m
Full, 100% of the Moon is Illuminated
Sep 19
Full
Sep 26
Last Quarter
Oct 4
New
Oct 11
First Quarter
Oct 18
Full

Hourly Weather History & Observations

Time (PDT) Temp. Windchill Dew Point Humidity Pressure Visibility Wind Dir Wind Speed Gust Speed Precip Events Conditions
12:53 AM 52.0 °F - 39.9 °F 63% 30.07 in 10.0 mi South 6.9 mph - N/A   Mostly Cloudy
1:53 AM 48.0 °F - 39.0 °F 71% 30.09 in 10.0 mi SSE 9.2 mph - N/A   Scattered Clouds
2:53 AM 48.0 °F - 37.9 °F 68% 30.09 in 10.0 mi SSE 6.9 mph - N/A   Scattered Clouds
3:53 AM 46.9 °F - 37.9 °F 71% 30.09 in 10.0 mi SSE 6.9 mph - N/A   Partly Cloudy
4:53 AM 46.9 °F - 39.0 °F 74% 30.10 in 10.0 mi SSE 3.5 mph - N/A   Partly Cloudy
5:53 AM 46.9 °F - 41.0 °F 80% 30.12 in 10.0 mi ESE 3.5 mph - N/A   Scattered Clouds
6:53 AM 46.0 °F 44.8 °F 41.0 °F 83% 30.14 in 10.0 mi ENE 3.5 mph - N/A   Scattered Clouds
7:53 AM 48.0 °F - 42.1 °F 80% 30.14 in 10.0 mi ENE 5.8 mph - N/A   Partly Cloudy
8:53 AM 52.0 °F - 43.0 °F 71% 30.14 in 10.0 mi ENE 4.6 mph - N/A   Partly Cloudy
9:53 AM 57.0 °F - 44.1 °F 62% 30.13 in 10.0 mi East 6.9 mph - N/A   Partly Cloudy
10:53 AM 62.1 °F - 44.1 °F 52% 30.12 in 10.0 mi ENE 4.6 mph - N/A   Scattered Clouds
11:53 AM 64.9 °F - 41.0 °F 42% 30.10 in 10.0 mi East 13.8 mph - N/A   Scattered Clouds
12:53 PM 66.9 °F - 39.9 °F 37% 30.08 in 10.0 mi East 9.2 mph - N/A   Scattered Clouds
1:53 PM 69.1 °F - 39.9 °F 35% 30.06 in 10.0 mi East 8.1 mph - N/A   Scattered Clouds
2:53 PM 70.0 °F - 37.9 °F 31% 30.04 in 10.0 mi ENE 8.1 mph 17.3 mph N/A   Scattered Clouds
3:53 PM 70.0 °F - 34.0 °F 27% 30.01 in 10.0 mi Variable 6.9 mph - N/A   Mostly Cloudy
4:53 PM 71.1 °F - 32.0 °F 24% 29.99 in 10.0 mi Variable 6.9 mph - N/A   Mostly Cloudy
5:53 PM 69.1 °F - 36.0 °F 30% 29.98 in 10.0 mi ENE 9.2 mph - N/A   Mostly Cloudy
6:53 PM 66.0 °F - 36.0 °F 33% 29.97 in 10.0 mi ENE 6.9 mph - N/A   Mostly Cloudy
7:53 PM 63.0 °F - 37.9 °F 40% 29.97 in 10.0 mi NE 8.1 mph - N/A   Scattered Clouds
8:53 PM 61.0 °F - 41.0 °F 48% 29.96 in 10.0 mi East 8.1 mph - N/A   Mostly Cloudy
9:53 PM 60.1 °F - 42.1 °F 51% 29.95 in 10.0 mi ENE 6.9 mph - N/A   Scattered Clouds
10:53 PM 57.0 °F - 43.0 °F 59% 29.94 in 10.0 mi ENE 5.8 mph - N/A   Scattered Clouds
11:53 PM 55.9 °F - 43.0 °F 62% 29.93 in 10.0 mi ENE 9.2 mph - N/A   Scattered Clouds